Istanbul, Turkey

9:44 AM +03 on October 22, 2017 (GMT +0300)
Ataturk

Weather History for LTBA - November, 2011

Change the Weather History Date:

Friday, November 18, 2011

  Actual Average Record
Temperature  
Mean Temperature 46 °F -  
Max Temperature 52 °F 52 °F 68 °F (2002)
Min Temperature 40 °F 43 °F 37 °F (2016)
Degree Days  
Heating Degree Days 19    
Moisture  
Dew Point 31 °F    
Average Humidity 53    
Maximum Humidity 70    
Minimum Humidity 33    
Precipitation  
Precipitation 0.00 in - - ()
Sea Level Pressure  
Sea Level Pressure 30.27 in    
Wind  
Wind Speed 7 mph ()    
Max Wind Speed 12 mph    
Max Gust Speed -    
Visibility 5.8 miles    
Events      
Averages and records for this station are not official NWS values.
T = Trace of Precipitation, MM = Missing Value Source: Averaged Metar Reports

Daily Weather History Graph

Daily Weather History Graph

Search for Another Location

Airport or City:

Trip Planner

Search our weather history database for the weather conditions in past years. The results will help you decide how hot, cold, wet, or windy it might be!

Date:

Astronomy

Nov. 18, 2011 Rise Set
Actual Time 6:54 AM EET 4:44 PM EET
Civil Twilight 6:25 AM EET 5:13 PM EET
Nautical Twilight 5:51 AM EET 5:47 PM EET
Astronomical Twilight 5:19 AM EET 6:19 PM EET
Moon 11:51 PM EET (11/18) 12:23 PM EET (11/18)
Length of Visible Light 10h 48m
Length of Day
9h 49m
Waning Gibbous, 52% of the Moon is Illuminated
Nov 18
Waning Gibbous
Nov 18
Last Quarter
Nov 25
New
Dec 2
First Quarter
Dec 10
Full

Hourly Weather History & Observations

Time (EET) Temp. Windchill Dew Point Humidity Pressure Visibility Wind Dir Wind Speed Gust Speed Precip Events Conditions
12:20 AM 46.4 °F 44.3 °F 33.8 °F 62% 30.30 in 5.0 mi Variable 4.6 mph - N/A   Mostly Cloudy
12:50 AM 44.6 °F 39.7 °F 32.0 °F 61% 30.30 in 4.3 mi NNE 9.2 mph - N/A   Mostly Cloudy
1:20 AM 44.6 °F 40.7 °F 30.2 °F 57% 30.30 in 4.3 mi NNE 6.9 mph - N/A   Mostly Cloudy
1:50 AM 44.6 °F 41.4 °F 30.2 °F 57% 30.30 in 4.3 mi NNE 5.8 mph - N/A   Mostly Cloudy
2:00 AM 45 °F - 30 °F 44% 30.31 in 4 mi NNE 5.8 mph - -   Mist
2:20 AM 44.6 °F 41.4 °F 30.2 °F 57% 30.30 in 4.3 mi NNE 5.8 mph - N/A   Mostly Cloudy
2:50 AM 44.6 °F 43.1 °F 30.2 °F 57% 30.30 in 4.3 mi NE 3.5 mph - N/A   Mostly Cloudy
3:20 AM 44.6 °F 42.2 °F 30.2 °F 57% 30.27 in 5.0 mi NNE 4.6 mph - N/A   Mostly Cloudy
3:50 AM 44.6 °F 41.4 °F 32.0 °F 61% 30.27 in 5.0 mi NE 5.8 mph - N/A   Mostly Cloudy
4:20 AM 44.6 °F 40.2 °F 32.0 °F 61% 30.27 in 5.0 mi NNE 8.1 mph - N/A   Mostly Cloudy
4:50 AM 44.6 °F 40.2 °F 30.2 °F 57% 30.27 in 4.3 mi NNE 8.1 mph - N/A   Mostly Cloudy
5:20 AM 44.6 °F 40.2 °F 30.2 °F 57% 30.27 in 6.2 mi NNE 8.1 mph - N/A   Mostly Cloudy
5:50 AM 44.6 °F 41.4 °F 32.0 °F 61% 30.27 in 6.2 mi NNE 5.8 mph - N/A   Mostly Cloudy
6:20 AM 44.6 °F 43.1 °F 32.0 °F 61% 30.27 in 6.2 mi ENE 3.5 mph - N/A   Mostly Cloudy
6:50 AM 44.6 °F 41.4 °F 32.0 °F 61% 30.27 in 6.2 mi ENE 5.8 mph - N/A   Mostly Cloudy
7:20 AM 44.6 °F 41.4 °F 30.2 °F 57% 30.30 in 6.2 mi ENE 5.8 mph - N/A   Mostly Cloudy
7:50 AM 46.4 °F 42.9 °F 30.2 °F 53% 30.30 in 6.2 mi ENE 6.9 mph - N/A   Mostly Cloudy
8:00 AM 46 °F - 30 °F 41% 30.31 in 6 mi ENE 6.9 mph - -   Partly Cloudy
8:20 AM 46.4 °F 42.4 °F 30.2 °F 53% 30.30 in 6.2 mi NE 8.1 mph - N/A   Mostly Cloudy
8:50 AM 46.4 °F 42.4 °F 28.4 °F 50% 30.30 in 6.2 mi Variable 8.1 mph - N/A   Mostly Cloudy
9:20 AM 48.2 °F - 28.4 °F 46% 30.30 in 6.2 mi Variable 6.9 mph - N/A   Mostly Cloudy
9:50 AM 50.0 °F - 28.4 °F 43% 30.30 in 6.2 mi NNE 8.1 mph - N/A   Mostly Cloudy
10:20 AM 50.0 °F - 28.4 °F 43% 30.30 in 6.2 mi ENE 8.1 mph - N/A   Mostly Cloudy
10:50 AM 50.0 °F - 26.6 °F 40% 30.30 in 6.2 mi NNE 10.4 mph - N/A   Mostly Cloudy
11:20 AM 50.0 °F - 26.6 °F 40% 30.27 in 6.2 mi North 9.2 mph - N/A   Mostly Cloudy
11:50 AM 48.2 °F - 26.6 °F 43% 30.27 in 6.2 mi Variable 8.1 mph - N/A   Scattered Clouds
12:20 PM 48.2 °F - 28.4 °F 46% 30.27 in 6.2 mi NNE 10.4 mph - N/A   Scattered Clouds
12:50 PM 50.0 °F - 28.4 °F 43% 30.27 in 6.2 mi NNE 8.1 mph - N/A   Scattered Clouds
1:20 PM 50.0 °F - 28.4 °F 43% 30.24 in 6.2 mi NNE 8.1 mph - N/A   Scattered Clouds
1:50 PM 50.0 °F - 28.4 °F 43% 30.24 in 6.2 mi NE 8.1 mph - N/A   Scattered Clouds
2:00 PM 49 °F - 29 °F 33% 30.27 in 6 mi NE 8.1 mph - -   Partly Cloudy
2:20 PM 50.0 °F - 28.4 °F 43% 30.24 in 6.2 mi NNE 10.4 mph - N/A   Scattered Clouds
2:50 PM 50.0 °F - 28.4 °F 43% 30.24 in 6.2 mi NE 8.1 mph - N/A   Scattered Clouds
3:20 PM 51.8 °F - 30.2 °F 44% 30.24 in 6.2 mi Variable 9.2 mph - N/A   Scattered Clouds
3:50 PM 48.2 °F - 30.2 °F 50% 30.24 in 6.2 mi NNE 9.2 mph - N/A   Scattered Clouds
4:20 PM 48.2 °F - 30.2 °F 50% 30.24 in 6.2 mi NNE 9.2 mph - N/A   Scattered Clouds
4:50 PM 46.4 °F 41.9 °F 30.2 °F 53% 30.24 in 6.2 mi NNE 9.2 mph - N/A   Scattered Clouds
5:20 PM 46.4 °F 41.5 °F 30.2 °F 53% 30.27 in 6.2 mi NNE 10.4 mph - N/A   Scattered Clouds
5:50 PM 46.4 °F 41.5 °F 30.2 °F 53% 30.27 in 6.2 mi NNE 10.4 mph - N/A   Scattered Clouds
6:20 PM 46.4 °F 41.1 °F 30.2 °F 53% 30.27 in 6.2 mi NNE 11.5 mph - N/A   Scattered Clouds
6:50 PM 46.4 °F 41.9 °F 32.0 °F 57% 30.27 in 6.2 mi NNE 9.2 mph - N/A   Scattered Clouds
7:20 PM 48.2 °F - 32.0 °F 54% 30.27 in 6.2 mi Variable 6.9 mph - N/A   Scattered Clouds
7:50 PM 50.0 °F - 32.0 °F 50% 30.27 in 6.2 mi Variable 6.9 mph - N/A   Scattered Clouds
8:00 PM 50 °F - 32 °F 38% 30.28 in 6 mi NE 6.9 mph - -   Partly Cloudy
8:20 PM 48.2 °F - 32.0 °F 54% 30.24 in 6.2 mi NNE 5.8 mph - N/A   Scattered Clouds
8:50 PM 42.8 °F 38.6 °F 32.0 °F 66% 30.24 in 6.2 mi North 6.9 mph - N/A   Scattered Clouds
9:20 PM 42.8 °F 37.5 °F 32.0 °F 66% 30.27 in 6.2 mi North 9.2 mph - N/A   Scattered Clouds
9:50 PM 44.6 °F 39.7 °F 33.8 °F 66% 30.27 in 6.2 mi North 9.2 mph - N/A   Scattered Clouds
10:20 PM 42.8 °F 37.5 °F 33.8 °F 70% 30.24 in 6.2 mi North 9.2 mph - N/A   Scattered Clouds
10:50 PM 42.8 °F 38.6 °F 33.8 °F 70% 30.24 in 6.2 mi North 6.9 mph - N/A   Scattered Clouds
11:20 PM 46.4 °F 44.3 °F 35.6 °F 66% 30.27 in 6.2 mi NNE 4.6 mph - N/A   Scattered Clouds
11:50 PM 48.2 °F - 35.6 °F 62% 30.27 in 6.2 mi NE 6.9 mph - N/A   Scattered Clouds